Location: Unspecified
(0.0000°N, 0.0000°E)
Time: 06:42:35
(UTC+00:00)

Tiros 1 - Pass Details

Date: 22 November 2019
Orbit: 630 x 664 km, 48.4° (Epoch: 11 December)

Event Time Altitude Azimuth Distance (km) Brightness Sun altitude
Rises 21:49:40 0° 317° (NW) 2,940 - -55.1°
Reaches altitude 10° 21:51:59 10° 315° (NW) 2,038 - -55.5°
Maximum altitude 21:56:40 69° 232° (SW) 696 - -56.4°
Drops below altitude 10° 22:01:25 10° 148° (SSE) 2,066 - -57.4°
Sets 22:03:47 0° 145° (SE) 2,983 - -57.8°
